615VGS Twitter

615vgs @ReigateBeat @metpoliceuk @SurreyFRS @LondonFire @RoyalAirForceUK Many thanks for your support with our LIVEX. Much appreciated.
615vgs 615 Boys (and wag!) good to go! http://t.co/yeznJBWKnx
615vgs Slightly different from your average day at RAF Kenley... Many thanks to all staff and colleagues from partner agencies that attended.
615vgs We're looking for a make-up artist to help us with a Post Crash Management Exercise we're holding at Kenley on... http://t.co/NRbt5U6Tfz

615VGS Facebook

Staff Login


Staff who require login details should contact the MCO.

Join 615 VGS

 

 

615 VGS Partner

bigatmo

Course Photos 2013

KY Aviation Wx

[source: ADDS]
METAR
EGKB 291150Z 23012KT 190V260 9999 SCT025 04/M01 Q0983 =
TAF
TAF EGKB 291105Z 2912/2921 23012KT 9999 FEW030 PROB30 TEMPO 2912/2921 25015G25KT 3000 SHRASN BKN006 BKN010CB BECMG 2915/2918 29014KT =
SR / SS: 07:41 / 16:44 UTC (Sunrise/Sunset 2015-01-29)